Mytilini, Greece

11:22 PM EEST on June 22, 2018 (GMT +0300)
Odysseas Elytis

Weather History for LGMT - March, 2018

Change the Weather History Date:

Wednesday, March 14, 2018

  Actual Average Record
Temperature  
Mean Temperature 60 °F -  
Max Temperature 68 °F 63 °F 68 °F (2013)
Min Temperature 53 °F 50 °F 39 °F (1998)
Degree Days  
Heating Degree Days 4    
Growing Degree Days 10 (Base 50)    
Moisture  
Dew Point 45 °F    
Average Humidity 52    
Maximum Humidity 72    
Minimum Humidity 29    
Precipitation  
Precipitation 0.00 in 0.08 in - ()
Sea Level Pressure  
Sea Level Pressure 29.84 in    
Wind  
Wind Speed 7 mph ()    
Max Wind Speed 13 mph    
Max Gust Speed -    
Visibility 6.5 miles    
Events      
Averages and records for this station are not official NWS values.
T = Trace of Precipitation, MM = Missing Value Source: Averaged Metar Reports

Daily Weather History Graph

Daily Weather History Graph

Search for Another Location

Airport or City:

Astronomy

Mar. 14, 2018 Rise Set
Actual Time 6:26 AM EET 6:19 PM EET
Civil Twilight 6:00 AM EET 6:45 PM EET
Nautical Twilight 5:29 AM EET 7:17 PM EET
Astronomical Twilight 4:58 AM EET 7:48 PM EET
Moon 4:49 AM EET (3/14) 3:20 PM EET (3/14)
Length of Visible Light 12h 45m
Length of Day
11h 52m
Waning Crescent, 10% of the Moon is Illuminated
Mar 14
Waning Crescent
Mar 17
New
Mar 24
First Quarter
Mar 31
Full
Apr 8
Last Quarter

Hourly Weather History & Observations

Time (EET) Temp. Dew Point Humidity Pressure Visibility Wind Dir Wind Speed Gust Speed Precip Events Conditions
6:20 AM 55.4 °F 46.4 °F 72% 29.83 in 6.2 mi WSW 4.6 mph - N/A   Partly Cloudy
6:50 AM 55.4 °F 46.4 °F 72% 29.83 in 6.2 mi SW 9.2 mph - N/A   Partly Cloudy
7:20 AM 55.4 °F 46.4 °F 72% 29.83 in 6.2 mi SW 8.1 mph - N/A   Partly Cloudy
7:50 AM 57.2 °F 48.2 °F 72% 29.83 in 6.2 mi SW 5.8 mph - N/A   Partly Cloudy
8:00 AM 57 °F 47 °F 61% 29.85 in 9 mi SW 5.8 mph - -   Scattered Clouds
8:20 AM 57.2 °F 48.2 °F 72% 29.86 in 6.2 mi Variable 3.5 mph - N/A   Partly Cloudy
8:50 AM 60.8 °F 50.0 °F 68% 29.86 in 6.2 mi SSE 4.6 mph - N/A   Partly Cloudy
9:20 AM 60.8 °F 50.0 °F 68% 29.86 in 6.2 mi SSE 5.8 mph - N/A   Partly Cloudy
9:50 AM 64.4 °F 50.0 °F 59% 29.86 in 6.2 mi Variable 5.8 mph - N/A   Partly Cloudy
10:20 AM 64.4 °F 50.0 °F 59% 29.86 in 6.2 mi South 9.2 mph - N/A   Partly Cloudy
10:50 AM 66.2 °F 48.2 °F 52% 29.86 in 6.2 mi SSW 9.2 mph - N/A   Partly Cloudy
11:00 AM 66 °F 47 °F 40% 29.87 in 9 mi SSW 9.2 mph - -   Scattered Clouds
11:20 AM 66.2 °F 48.2 °F 52% 29.86 in 6.2 mi SSW 9.2 mph - N/A   Partly Cloudy
11:50 AM 66.2 °F 46.4 °F 49% 29.86 in 6.2 mi SW 12.7 mph - N/A   Partly Cloudy
12:20 PM 66.2 °F 46.4 °F 49% 29.86 in 6.2 mi SW 11.5 mph - N/A   Partly Cloudy
12:50 PM 66.2 °F 42.8 °F 43% 29.86 in 6.2 mi SSW 11.5 mph - N/A   Partly Cloudy
1:20 PM 66.2 °F 42.8 °F 43% 29.86 in 6.2 mi SW 12.7 mph - N/A   Partly Cloudy
1:50 PM 66.2 °F 44.6 °F 46% 29.86 in 6.2 mi SW 9.2 mph - N/A   Partly Cloudy
2:00 PM 67 °F 44 °F 31% 29.87 in 9 mi SW 9.2 mph - -   Scattered Clouds
2:20 PM 66.2 °F 44.6 °F 46% 29.83 in 6.2 mi SW 9.2 mph - N/A   Partly Cloudy
2:50 PM 68.0 °F 42.8 °F 40% 29.83 in 6.2 mi SW 9.2 mph - N/A   Partly Cloudy
3:20 PM 68.0 °F 42.8 °F 40% 29.83 in 6.2 mi SW 10.4 mph - N/A   Partly Cloudy
3:50 PM 68.0 °F 42.8 °F 40% 29.83 in 6.2 mi WSW 9.2 mph - N/A   Partly Cloudy
4:20 PM 68.0 °F 42.8 °F 40% 29.83 in 6.2 mi WSW 9.2 mph - N/A   Partly Cloudy
4:50 PM 66.2 °F 41.0 °F 40% 29.83 in 6.2 mi SW 9.2 mph - N/A   Partly Cloudy
5:00 PM 66 °F 41 °F 29% 29.83 in 9 mi SW 9.2 mph - -   Scattered Clouds
5:20 PM 66.2 °F 41.0 °F 40% 29.83 in 6.2 mi SW 9.2 mph - N/A   Partly Cloudy
5:50 PM 62.6 °F 42.8 °F 48% 29.83 in 6.2 mi WSW 5.8 mph - N/A   Partly Cloudy
6:20 PM 60.8 °F 42.8 °F 52% 29.83 in 6.2 mi WSW 5.8 mph - N/A   Partly Cloudy
6:50 PM 59.0 °F 41.0 °F 51% 29.83 in 6.2 mi SSW 5.8 mph - N/A   Partly Cloudy
7:50 PM 59.0 °F 41.0 °F 51% 29.83 in 6.2 mi Variable 3.5 mph - N/A   Partly Cloudy
8:00 PM 58 °F 41 °F 41% 29.84 in 6 mi 3.5 mph - -   Scattered Clouds
8:20 PM 59.0 °F 41.0 °F 51% 29.83 in 6.2 mi Variable 3.5 mph - N/A   Partly Cloudy
8:50 PM 57.2 °F 41.0 °F 55% 29.83 in 6.2 mi Variable 3.5 mph - N/A   Partly Cloudy
9:20 PM 57.2 °F 41.0 °F 55% 29.83 in 6.2 mi Variable 3.5 mph - N/A   Partly Cloudy
9:50 PM 57.2 °F 41.0 °F 55% 29.83 in 6.2 mi SW 9.2 mph - N/A   Partly Cloudy